Regional Weather Roundup
Issued by NWS

Home | Current Version | Previous Version | Text Only | Print | Product List | Glossary Off
Versions: 1 2 3 4 5 6 7 8 9 10 11 12 13 14 15 16 17 18 19 20 21 22 23 24 25 26 27 28 29 30 31 32 33 34 35 36 37 38 39 40 41 42 43 44 45 46 47 48 49 50

000
ASUS43 KTOP 230659
RWRKS

WEATHER ROUNDUP FOR KANSAS
NATIONAL WEATHER SERVICE GOODLAND KS
200 AM CDT FRI JUN 23 2017

NOTE:  "FAIR" INDICATES FEW OR NO CLOUDS BELOW 12,000 FEET WITH NO
SIGNIFICANT WEATHER AND/OR OBSTRUCTIONS TO VISIBILITY.

KSZ001>006-013>018-027>032-041>047-230800-
NORTHWEST KANSAS

CITY           SKY/WX    TMP DP  RH WIND       PRES   REMARKS
GOODLAND       CLOUDY    67  55  65 NE13      30.02R
HAYS           CLOUDY    70  65  84 NE17      29.86F
HILL CITY      CLOUDY    70  60  70 N12       29.92S
RUSSELL        CLOUDY    71  65  81 N14       29.84R
$$

KSZ061>065-074>080-084>089-230800-
SOUTHWEST KANSAS

CITY           SKY/WX    TMP DP  RH WIND       PRES   REMARKS
DODGE CITY     CLOUDY    67  61  81 N7        29.86R
ELKHART          N/A     69  54  58 N13         N/A
GARDEN CITY    CLOUDY    69  62  78 NE16      29.87S
GREAT BEND     CLOUDY    71  62  73 N21       29.78S
LIBERAL        CLOUDY    74  59  59 NW3       29.85F
$$

KSZ066>073-081>083-090>101-230800-
SOUTHEAST KANSAS

CITY           SKY/WX    TMP DP  RH WIND       PRES   REMARKS
CHANUTE        CLEAR     73  71  93 S3        29.73S
COFFEYVILLE    CLEAR     72  72 100 CALM      29.72S
HUTCHINSON     CLOUDY    80  63  55 NW12      29.73F
MEDICINE LODGE   N/A     77  63  61 CALM      29.74F
NEWTON         CLOUDY    79  66  64 NW9       29.74F
PARSONS        CLEAR     72  69  90 CALM      29.73F
WICHITA INTL   MOCLDY    75  68  78 SW5       29.73F
WICHITA JABRA  CLOUDY    76  70  82 S6        29.73F
WINFIELD       CLEAR     74  71  91 NW6       29.75F
$$

KSZ007>012-019>026-033>040-048>060-102>105-230800-
NORTHEAST KANSAS

CITY           SKY/WX    TMP DP  RH WIND       PRES   REMARKS
CONCORDIA      CLOUDY    74  65  73 N21G28    29.79R
EMPORIA        PTCLDY    76  73  91 S12       29.72F
LAWRENCE       MOCLDY    75  74  96 SE3       29.70F
MANHATTAN      CLOUDY    77  71  82 CALM      29.70F
OLATHE IND     CLEAR     72  71  97 S5        29.72F
OLATHE EXE     CLEAR     73  73 100 S5        29.72F
SALINA         CLOUDY    79  64  60 NW28G35   29.74R
TOPEKA BILLARD MOCLDY    77  74  90 CALM      29.70F
TOPEKA FORBES  RAIN      77  74  90 SE3       29.71F FOG
$$




USA.gov is the U.S. government's official web portal to all federal, state and local government web resources and services.